Location: Trois-Rivi�res
(46.3500°N, 72.5500°W)
Time: 08:44:25
(UTC-05:00)

UWE-3 - Visible Passes

Search period start: 25 February 2018 00:00
Search period end: 07 March 2018 00:00
Orbit: 586 x 684 km, 97.6° (Epoch: 24 February)

Date Brightness Start Highest point End Pass type
(mag) Time Alt. Az. Time Alt. Az. Time Alt. Az.
25 Feb ? 19:27:07 10° SSW 19:30:57 26° W 19:34:46 10° NW visible
26 Feb ? 18:11:45 10° SSE 18:16:17 61° ENE 18:20:46 10° N visible
26 Feb ? 19:50:17 10° SW 19:53:06 16° W 19:55:54 10° NW visible
27 Feb ? 18:33:36 10° S 18:38:13 82° WSW 18:42:45 10° NNW visible
28 Feb ? 18:55:45 10° S 19:00:12 49° W 19:04:36 10° NNW visible
01 Mar ? 19:18:14 10° SSW 19:22:15 30° W 19:26:13 10° NNW visible
02 Mar ? 18:03:16 10° SSE 18:07:41 50° ENE 18:12:00 10° N visible
02 Mar ? 19:41:10 10° SW 19:44:22 19° W 19:47:32 10° NW visible
03 Mar ? 18:25:01 10° SSE 18:29:35 83° ENE 18:34:03 10° NNW visible
03 Mar ? 20:05:11 10° WSW 20:06:34 11° W 20:07:55 10° WNW visible
04 Mar ? 18:47:02 10° S 18:51:32 59° W 18:55:56 10° NNW visible
05 Mar ? 19:09:23 10° SSW 19:13:34 35° W 19:17:38 10° NNW visible
06 Mar ? 19:32:09 10° SW 19:35:39 22° W 19:39:05 10° NW visible
